Location: *
(43.0409°N, 0.1694°E)
Time: 16:36:51
(UTC+00:00)

FENGYUN 1C DEB - Pass Details

Date: 22 June 2024
Orbit: 854 x 916 km, 98.8° (Epoch: 11 July)

Event Time Altitude Azimuth Distance (km) Brightness Sun altitude
Rises 20:56:32 0° 223° (SW) 3,505 ? -11.1°
Reaches altitude 10° 21:01:01 10° 256° (WSW) 2,586 ? -11.6°
Maximum altitude 21:02:46 11° 274° (W) 2,498 ? -11.8°
Drops below altitude 10° 21:04:30 10° 292° (WNW) 2,601 ? -12.1°
Sets 21:09:05 0° 325° (NW) 3,559 ? -12.6°
